Regional Weather Roundup
Issued by NWS Kansas City/Pleasant Hill, MO

Home | Current Version | Previous Version | Text Only | Print | Product List | Glossary On
Versions: 1 2 3 4 5 6 7 8 9 10 11 12 13 14 15 16 17 18 19 20 21 22 23 24 25 26 27 28
000
ASUS43 KEAX 111010
RWREAX

WEATHER ROUNDUP FOR EASTERN KANSAS AND NORTHWEST MISSOURI
NATIONAL WEATHER SERVICE KANSAS CITY/PLEASANT HILL MO
400 AM CST MON DEC 11 2017

KSZ040-057-103>105-MOZ028-029-037-043-111100-
...KANSAS CITY METROPOLITAN AREA...

CITY           SKY/WX    TMP DP  RH WIND       PRES   REMARKS
K.C. INTL      CLEAR     35  20  54 SW9       30.00F WCI  28
K.C. DOWNTOWN  CLEAR     33  26  75 CALM      30.00F
LEES SUMMIT    CLEAR     40  20  44 SW8       30.00F WCI  34
OLATHE - IXD   CLEAR     35  21  56 SW7       30.03F WCI  29
OLATHE - OJC   CLEAR     38  20  48 SW6       30.01F WCI  33
LAWRENCE       CLEAR     21  17  84 CALM      30.02F

$$

MOZ001>008-011>017-020>025-030>033-038>040-044>046-053-054-111100-
...NORTHERN AND CENTRAL MISSOURI...

CITY           SKY/WX    TMP DP  RH WIND       PRES   REMARKS
ST. JOSEPH     PTCLDY    25  22  88 SE5       30.00F WCI  19
MOSBY          SUNNY     27  21  80 CALM      30.00F
WARRENSBURG    CLEAR     32  23  69 S7        30.01F WCI  26
WHITEMAN AFB   CLEAR     31  23  70 S9        29.98F WCI  23
CLINTON        CLEAR     36  23  60 CALM      30.05F
SEDALIA        CLEAR     40  27  59 SW14      30.03F WCI  32
WARSAW         NOT AVBL
CHILLICOTHE      N/A     29  23  78 CALM      29.99F
KIRKSVILLE     PTCLDY    33  27  78 SW6       29.97F WCI  28

$$

MOZ041-047>049-056>058-063>065-088>090-097-111100-
...EASTERN AND SOUTHERN MISSOURI...

CITY           SKY/WX    TMP DP  RH WIND       PRES   REMARKS
ST. LOUIS INTL PTCLDY    30  25  81 CALM      30.07F
SPIRIT OF STL  CLEAR     24  22  91 CALM      30.06F
COLUMBIA       CLEAR     35  25  66 S6        30.03F WCI  30
JEFFERSON CITY CLEAR     33  25  72 E6        30.05F WCI  28
ROLLA          CLEAR     35  25  66 SW13      30.06F WCI  26
OSAGE BEACH    CLEAR     28  24  85 SE3       30.07
SPRINGFIELD    CLEAR     32  23  69 S8        30.09F WCI  25
BRANSON        CLEAR     45  21  39 CALM      30.13F
JOPLIN         CLEAR     36  24  62 S6        30.12F WCI  31
WEST PLAINS    CLEAR     34  23  64 SW6       30.12F WCI  29

$$

IAZ060-094-KSZ022-034>040-054-083-096-NEZ052-066-093-111100-
...KANSAS...SOUTHEAST NEBRASKA AND IOWA...

CITY           SKY/WX    TMP DP  RH WIND       PRES   REMARKS
TOPEKA         CLEAR     27  22  81 CALM      30.03F
MANHATTAN      CLEAR     35  17  47 SW7       30.06F WCI  29
EMPORIA        CLEAR     43  15  32 W7        30.06F
CHANUTE        CLEAR     36  21  54 SW5       30.09F WCI  32
WICHITA        CLEAR     40  15  36 W12       30.12F WCI  33
OMAHA          MOCLDY    36  21  54 SE3       29.93F
LINCOLN        PTCLDY    40  16  37 VRB3      29.99F
FALLS CITY       N/A     39  18  42 W13       29.97F WCI  31
LAMONI         CLOUDY    35  24  64 S9        29.93F WCI  28
DES MOINES     MOCLDY    32  24  72 S3        29.91F

$$





USA.gov is the U.S. government's official web portal to all federal, state and local government web resources and services.